Home   Weather   Kingstree   Past weeks
Flag for USA

Past Weather in Kingstree, South Carolina, USA — Yesterday and Last 2 Weeks

Now
64 °F

Rain. Low clouds.


Feels Like: 64 °F
Forecast: 71 / 61 °F
Wind: 7 mph from East

Location: Manning / Cooper Regional

Current Time: Oct 19, 2019 at 9:01:45 pm

Latest Report: Oct 19, 2019 at 8:35 pm


Visibility: 5 mi

Pressure: 29.80 "Hg

Humidity: 100%

Dew Point: 64 °F

Location of KingstreeLocation

Past Weather in Kingstree — Graph

°F

Kingstree Temperature Yesterday

Maximum temperature yesterday: 68 °F (at 2:15 pm)
Minimum temperature yesterday: 43 °F (at 1:35 am)
Average temperature yesterday: 54 °F

High & Low Weather Summary for the Past Weeks

 TemperatureHumidityPressure
High86 °F (Oct 4, 7:15 pm)100% (Oct 7, 2:15 am)30.23 "Hg (Oct 7, 2:15 am)
Low43 °F (Oct 17, 7:35 am)30% (Oct 17, 5:15 pm)29.67 "Hg (Oct 16, 1:55 pm)
Average66 °F76%30.05 "Hg
* Reported Oct 4 7:15 pm — Oct 19 7:55 pm, Kingstree. Weather by CustomWeather, © 2019

Note: Actual official high and low records may vary slightly from our data, if they occured in-between our weather recording intervals... More about our weather records

Advertising

Kingstree Weather History for the Previous 24 Hours

Scroll right to see more
 ConditionsComfort  
Time TempWeatherWind HumidityBarometerVisibility
7:55 pm
Sat, Oct 19
64 °FLight rain. Low clouds.6 mph100%29.83 "Hg7 mi
7:15 pm63 °FRain. Low clouds.7 mph100%29.85 "Hg10 mi
6:55 pm63 °FDrizzle. Low clouds.6 mph100%29.85 "Hg10 mi
6:35 pm63 °FDrizzle. Low clouds.7 mph100%29.86 "Hg10 mi
6:15 pm63 °FLight rain. Low clouds.5 mph100%29.86 "Hg5 mi
5:55 pm63 °FDrizzle. Low clouds.6 mph100%29.87 "Hg7 mi
5:35 pm63 °FHeavy rain. Low clouds.7 mph94%29.88 "Hg5 mi
5:15 pm63 °FLow clouds.8 mph94%29.89 "Hg10 mi
4:35 pm63 °FLow clouds.8 mph94%29.90 "Hg10 mi
4:15 pm61 °FLow clouds.7 mph100%29.91 "Hg10 mi
3:55 pm61 °FLow clouds.7 mph100%29.92 "Hg10 mi
3:35 pm61 °FLight rain. Low clouds.5 mph100%29.93 "Hg5 mi
3:15 pm61 °FRain. Low clouds.5 mph100%29.94 "Hg4 mi
2:35 pm61 °FLight rain. Low clouds.3 mph94%29.96 "Hg7 mi
2:15 pm59 °FRain. Low clouds.3 mph100%29.97 "Hg7 mi
1:55 pm59 °FDrizzle. Broken clouds.6 mph100%29.98 "Hg7 mi
1:35 pm59 °FRain. Scattered clouds.5 mph100%29.99 "Hg7 mi
1:15 pm59 °FLight rain. Partly sunny.6 mph88%30.00 "Hg5 mi
12:55 pm57 °FRain. Scattered clouds.5 mph94%30.02 "Hg5 mi
12:35 pm57 °FRain. Sunny.6 mph94%30.02 "Hg10 mi
12:15 pm55 °FLight rain. Sunny.3 mph94%30.04 "Hg10 mi
11:55 am55 °FRain. Scattered clouds.3 mph94%30.04 "Hg7 mi
11:35 am57 °FRain. Scattered clouds.No wind82%30.04 "Hg7 mi
11:15 am61 °FOvercast.7 mph63%30.04 "Hg10 mi
10:55 am61 °FOvercast.3 mph59%30.04 "Hg10 mi
10:35 am59 °FOvercast.6 mph63%30.04 "Hg10 mi
10:15 am59 °FOvercast.5 mph59%30.04 "Hg10 mi
9:55 am59 °FOvercast.7 mph59%30.04 "Hg10 mi
9:35 am57 °FOvercast.6 mph63%30.04 "Hg10 mi
9:15 am55 °FPartly sunny.5 mph67%30.03 "Hg10 mi
8:55 am55 °FSunny.6 mph67%30.03 "Hg10 mi
8:35 am54 °FScattered clouds.6 mph72%30.04 "Hg10 mi
8:15 am54 °FScattered clouds.5 mph72%30.03 "Hg10 mi
7:55 am54 °FSunny.5 mph72%30.03 "Hg10 mi
7:35 am54 °FSunny.3 mph72%30.02 "Hg10 mi
7:15 am54 °FPassing clouds.3 mph72%30.02 "Hg10 mi
6:55 am54 °FPassing clouds.5 mph72%30.02 "Hg10 mi
6:35 am52 °FOvercast.5 mph77%30.03 "Hg10 mi
6:15 am52 °FPassing clouds.3 mph82%30.03 "Hg10 mi
5:55 am50 °FClear.No wind82%30.03 "Hg10 mi
5:35 am50 °FPassing clouds.3 mph88%30.02 "Hg10 mi
5:15 am46 °FClear.3 mph100%30.02 "Hg10 mi
4:55 am48 °FClear.No wind94%30.02 "Hg10 mi
4:35 am48 °FClear.No wind94%30.02 "Hg10 mi
4:15 am46 °FClear.5 mph100%30.02 "Hg10 mi
3:55 am46 °FClear.No wind100%30.02 "Hg10 mi
3:35 am46 °FClear.No wind100%30.02 "Hg10 mi
3:15 am46 °FClear.No wind100%30.02 "Hg10 mi
2:55 am46 °FClear.No wind100%30.02 "Hg10 mi
2:35 am46 °FClear.No wind100%30.02 "Hg10 mi
2:15 am46 °FClear.No wind100%30.03 "Hg10 mi
1:55 am46 °FClear.No wind100%30.04 "Hg10 mi
1:35 am46 °FClear.No wind100%30.04 "Hg10 mi
1:15 am46 °FClear.No wind100%30.04 "Hg10 mi
12:55 am48 °FClear.No wind94%30.04 "Hg10 mi
12:35 am48 °FClear.No wind94%30.04 "Hg10 mi
12:15 am48 °FClear.No wind94%30.03 "Hg10 mi
11:55 pm
Fri, Oct 18
48 °FClear.No wind94%30.03 "Hg10 mi
11:35 pm48 °FClear.No wind94%30.03 "Hg10 mi
11:15 pm50 °FClear.No wind88%30.03 "Hg10 mi
10:35 pm50 °FClear.No wind88%30.03 "Hg10 mi
10:15 pm50 °FClear.No wind88%30.03 "Hg10 mi
9:55 pm50 °FClear.No wind88%30.03 "Hg10 mi
9:35 pm52 °FClear.No wind82%30.03 "Hg10 mi
9:15 pm52 °FClear.No wind82%30.03 "Hg10 mi
Weather by CustomWeather, © 2019

See weather overview